RYR85PQ LIMF-LEMG

Flight info

Callsign RYR85PQ
Flight time N/A
Altitude 37000
Route LAGEN DCT GEKBA DCT VAMTU DCT KOLON DCT GANGU DCT PADKO DCT DIVKO DCT NILDU DCT NENDA DCT BCN DCT RODRA DCT PEXOT DCT EBROX DCT LOTOS DCT TORDU DCT DIKUT DCT SOPET DCT VLC DCT SERRA DCT ASTRO DCT POBOS DCT XEBAR DCT YES DCT MAMIS DCT BAZAS DCT VIBAS
Aircraft B738/M-SDE3FGILRWY/SB1

Departure

Time 2026-04-29 16:29
Airport Turin Airport (LIMF)

Arrival

Time N/A
Airport Málaga-Costa del Sol Airport (LEMG)
Time Latitude Longitude Altitude Speed Heading
2026-04-29 16:04 45.19399 7.64465 993 ft 0 kts 271°
2026-04-29 16:20 45.19398 7.64475 985 ft 4 kts 269°
2026-04-29 16:20 45.19404 7.64510 988 ft 4 kts 233°
2026-04-29 16:20 45.19421 7.64526 992 ft 2 kts 182°
2026-04-29 16:21 45.19423 7.64526 992 ft 0 kts 182°
2026-04-29 16:24 45.19422 7.64526 985 ft 1 kts 182°
2026-04-29 16:24 45.19406 7.64526 992 ft 4 kts 177°
2026-04-29 16:24 45.19380 7.64557 985 ft 6 kts 114°
2026-04-29 16:24 45.19362 7.64630 985 ft 9 kts 108°
2026-04-29 16:25 45.19324 7.64673 989 ft 7 kts 178°
2026-04-29 16:25 45.19263 7.64667 985 ft 10 kts 184°
2026-04-29 16:25 45.19183 7.64663 985 ft 13 kts 182°
2026-04-29 16:25 45.19090 7.64657 986 ft 13 kts 183°
2026-04-29 16:26 45.19003 7.64657 991 ft 11 kts 166°
2026-04-29 16:26 45.18968 7.64743 984 ft 10 kts 95°
2026-04-29 16:26 45.18975 7.64861 988 ft 13 kts 59°
2026-04-29 16:26 45.19042 7.64899 982 ft 7 kts
2026-04-29 16:27 45.19044 7.64899 982 ft 0 kts
2026-04-29 16:28 45.19097 7.64902 983 ft 33 kts
2026-04-29 16:28 45.19653 7.64936 983 ft 125 kts
2026-04-29 16:28 45.20753 7.65012 1219 ft 179 kts
2026-04-29 16:29 45.21631 7.65077 1767 ft 193 kts
2026-04-29 16:29 45.23375 7.65196 2848 ft 219 kts
2026-04-29 16:29 45.24592 7.65275 3462 ft 232 kts
2026-04-29 16:29 45.26206 7.65501 4248 ft 245 kts 18°
2026-04-29 16:30 45.27634 7.66898 4684 ft 265 kts 54°
2026-04-29 16:30 45.28325 7.69365 5501 ft 271 kts 86°
2026-04-29 16:30 45.28064 7.71969 6401 ft 274 kts 112°
2026-04-29 16:30 45.26972 7.74185 7229 ft 278 kts 140°
2026-04-29 16:31 45.25250 7.75435 8037 ft 284 kts 167°
2026-04-29 16:31 45.23273 7.75769 8875 ft 289 kts 178°
2026-04-29 16:31 45.21252 7.75837 9705 ft 294 kts 180°
2026-04-29 16:31 45.19184 7.75844 10474 ft 301 kts 180°
2026-04-29 16:32 45.17006 7.75847 10720 ft 327 kts 180°
2026-04-29 16:32 45.14652 7.75859 11006 ft 348 kts 180°
2026-04-29 16:32 45.12184 7.75887 11657 ft 356 kts 180°
2026-04-29 16:32 45.09692 7.75928 12486 ft 359 kts 180°
2026-04-29 16:33 45.04635 7.76032 14021 ft 368 kts 180°
2026-04-29 16:33 45.02058 7.76092 14724 ft 372 kts 180°
2026-04-29 16:33 44.99457 7.76154 15441 ft 376 kts 180°
2026-04-29 16:34 44.96835 7.76217 16148 ft 379 kts 180°
2026-04-29 16:34 44.94184 7.76281 16836 ft 383 kts 180°
2026-04-29 16:34 44.91502 7.76347 17527 ft 387 kts 180°
2026-04-29 16:34 44.88796 7.76412 18227 ft 391 kts 180°
2026-04-29 16:35 44.86063 7.76479 18821 ft 394 kts 180°
2026-04-29 16:35 44.83310 7.76546 19409 ft 398 kts 180°
2026-04-29 16:35 44.80532 7.76613 19993 ft 401 kts 180°
2026-04-29 16:35 44.77727 7.76681 20576 ft 405 kts 180°
2026-04-29 16:36 44.74901 7.76750 21137 ft 408 kts 180°
2026-04-29 16:36 44.72045 7.76819 21686 ft 412 kts 180°
2026-04-29 16:36 44.69170 7.76889 22231 ft 415 kts 180°
2026-04-29 16:36 44.66276 7.76958 22774 ft 418 kts 180°
2026-04-29 16:37 44.63356 7.77028 23310 ft 421 kts 180°
2026-04-29 16:37 44.60408 7.77099 23795 ft 425 kts 180°
2026-04-29 16:37 44.57489 7.76675 24184 ft 425 kts 199°
2026-04-29 16:37 44.55693 7.75576 24475 ft 423 kts 213°
2026-04-29 16:38 44.52777 7.71964 25091 ft 420 kts 233°
2026-04-29 16:38 44.51017 7.68687 25509 ft 422 kts 236°
2026-04-29 16:38 44.49298 7.65333 25891 ft 426 kts 236°
2026-04-29 16:38 44.47577 7.61936 26273 ft 429 kts 236°
2026-04-29 16:39 44.45842 7.58527 26699 ft 431 kts 236°
2026-04-29 16:39 44.44113 7.55161 27098 ft 433 kts 236°
2026-04-29 16:39 44.42340 7.51741 27495 ft 436 kts 236°
2026-04-29 16:39 44.40546 7.48306 27862 ft 438 kts 236°
2026-04-29 16:40 44.38738 7.44861 28239 ft 441 kts 235°
2026-04-29 16:40 44.36915 7.41398 28612 ft 443 kts 235°
2026-04-29 16:40 44.35084 7.37929 28980 ft 445 kts 235°
2026-04-29 16:40 44.33242 7.34443 29335 ft 447 kts 235°
2026-04-29 16:41 44.31384 7.30932 29670 ft 450 kts 235°
2026-04-29 16:41 44.29522 7.27416 29998 ft 452 kts 235°
2026-04-29 16:41 44.27651 7.23887 30397 ft 452 kts 235°
2026-04-29 16:41 44.25782 7.20367 30855 ft 449 kts 235°
2026-04-29 16:42 44.23924 7.16870 31248 ft 448 kts 235°
2026-04-29 16:42 44.22068 7.13382 31607 ft 448 kts 235°
2026-04-29 16:42 44.20215 7.09903 31971 ft 448 kts 235°
2026-04-29 16:42 44.18366 7.06437 32345 ft 447 kts 235°
2026-04-29 16:43 44.16506 7.02951 32718 ft 446 kts 235°
2026-04-29 16:43 44.14656 6.99490 33083 ft 445 kts 235°
2026-04-29 16:43 44.12811 6.96043 33438 ft 444 kts 235°
2026-04-29 16:43 44.10959 6.92586 33759 ft 444 kts 235°
2026-04-29 16:44 44.09114 6.89147 34105 ft 444 kts 235°
2026-04-29 16:44 44.07268 6.85710 34432 ft 442 kts 235°
2026-04-29 16:44 44.05432 6.82295 34739 ft 441 kts 235°
2026-04-29 16:44 44.03593 6.78879 35026 ft 441 kts 235°
2026-04-29 16:45 44.01758 6.75474 35321 ft 440 kts 235°
2026-04-29 16:45 43.99927 6.72081 35625 ft 439 kts 235°
2026-04-29 16:45 43.98098 6.68696 35927 ft 437 kts 235°
2026-04-29 16:45 43.96275 6.65324 36219 ft 436 kts 235°
2026-04-29 16:46 43.94448 6.61966 36502 ft 435 kts 234°
2026-04-29 16:46 43.92581 6.58662 36760 ft 435 kts 233°
2026-04-29 16:46 43.90690 6.55394 37026 ft 434 kts 233°
2026-04-29 16:46 43.88789 6.52136 36993 ft 438 kts 233°
2026-04-29 16:47 43.84969 6.45590 37008 ft 434 kts 233°
2026-04-29 16:47 43.81192 6.39094 37011 ft 432 kts 233°
2026-04-29 16:48 43.77437 6.32628 37013 ft 430 kts 233°
2026-04-29 16:48 43.73693 6.26189 37012 ft 429 kts 233°
2026-04-29 16:49 43.69943 6.19753 37015 ft 430 kts 233°
2026-04-29 16:49 43.66188 6.13323 37010 ft 431 kts 233°
2026-04-29 16:50 43.62411 6.06871 37009 ft 433 kts 233°
2026-04-29 16:50 43.58642 6.00446 37006 ft 435 kts 233°
2026-04-29 16:51 43.54827 5.93958 37002 ft 436 kts 233°
2026-04-29 16:51 43.50996 5.87459 37003 ft 437 kts 233°
2026-04-29 16:52 43.47149 5.80947 37005 ft 439 kts 233°
2026-04-29 16:52 43.43304 5.74452 37001 ft 440 kts 233°
2026-04-29 16:53 43.39424 5.67911 36990 ft 440 kts 233°
2026-04-29 16:53 43.35568 5.61427 36995 ft 439 kts 233°
2026-04-29 16:54 43.31679 5.54902 36985 ft 439 kts 233°
2026-04-29 16:54 43.29948 5.51539 36964 ft 435 kts 246°
2026-04-29 16:54 43.28991 5.47662 37001 ft 428 kts 263°
2026-04-29 16:55 43.28934 5.43610 36997 ft 424 kts 281°
2026-04-29 16:55 43.29721 5.39747 37009 ft 421 kts 289°
2026-04-29 16:55 43.30306 5.35815 36988 ft 422 kts 274°
2026-04-29 16:55 43.30071 5.31808 36975 ft 425 kts 256°
2026-04-29 16:56 43.27986 5.24211 36998 ft 427 kts 248°
2026-04-29 16:56 43.25575 5.16751 36994 ft 428 kts 248°
2026-04-29 16:57 43.23129 5.09293 36993 ft 429 kts 248°
2026-04-29 16:57 43.20668 5.01824 36996 ft 430 kts 248°
2026-04-29 16:58 43.18198 4.94346 36992 ft 431 kts 248°
2026-04-29 16:58 43.15721 4.86857 37001 ft 432 kts 248°
2026-04-29 16:59 43.13238 4.79361 36988 ft 432 kts 247°